Regional Weather Roundup
Issued by NWS

Home | Current Version | Previous Version | Graphics & Text | Print | Product List | Glossary On
Versions: 1 2 3 4 5 6 7 8 9 10 11 12 13 14 15 16 17 18 19 20 21 22 23 24 25 26 27 28 29 30 31 32 33 34 35 36 37 38 39 40 41 42 43 44 45 46 47 48 49 50
874
ASUS43 KLSX 302057
RWRMO

WEATHER SUMMARY FOR MISSOURI
NATIONAL WEATHER SERVICE SPRINGFIELD MO
400 PM CDT FRI SEP 30 2016

NOTE: "FAIR" INDICATES FEW OR NO CLOUDS BELOW 12,000 FEET WITH NO
       SIGNIFICANT WEATHER AND/OR OBSTRUCTIONS TO VISIBILITY.
       CURRENT SKY AND/OR WEATHER CONDITIONS ARE NOT AVAILABLE FOR
       CHILLICOTHE AND FARMINGTON.

MOZ001>031-035>038-043-044-053-054-302200-
...NORTHERN AND WESTERN MISSOURI...

CITY           SKY/WX    TMP DP  RH WIND       PRES   REMARKS
KANSAS CTY INT MOSUNNY   73  47  39 N13G20    30.14F
LEE`S SUMMIT   SUNNY     75  47  36 N9        30.13F
ST JOSEPH      SUNNY     74  49  41 NE12      30.15F
CHILLICOTHE      N/A     71  53  52 N14G20    30.15F

$$
MOZ066>068-077>081-088>096-101>105-302200-
...SOUTHWEST MISSOURI...

CITY           SKY/WX    TMP DP  RH WIND       PRES   REMARKS
SPRINGFIELD    MOSUNNY   73  51  46 NW9       30.11F
JOPLIN         MOSUNNY   74  54  49 N6        30.13F
BRANSON        PTSUNNY   73  52  46 NW10      30.12F

$$
MOZ032>034-039>042-045>050-055>058-069>072-302200-
...CENTRAL MISSOURI...

CITY           SKY/WX    TMP DP  RH WIND       PRES   REMARKS
COLUMBIA       NOT AVBL
JEFFERSON CITY CLOUDY    68  55  63 N5        30.10F
ROLLA          CLOUDY    64  55  72 N8        30.09F
SEDALIA        SUNNY     76  48  37 N15       30.12F

$$
MOZ051-052-059>065-302200-
...EAST CENTRAL MISSOURI...

CITY           SKY/WX    TMP DP  RH WIND       PRES   REMARKS
ST LOUIS INTL  PTSUNNY   65  59  81 NW13      30.06F

$$
MOZ072>076-082>087-097>100-106>115-302200-
...SOUTH CENTRAL AND SOUTHEAST MISSOURI...

CITY           SKY/WX    TMP DP  RH WIND       PRES   REMARKS
CAPE GIRARDEAU CLOUDY    65  59  81 W8        30.02F
POPLAR BLUFF   CLOUDY    68  57  68 NW10      30.05S
WEST PLAINS    CLOUDY    69  54  58 NW10      30.11F

$$



USA.gov is the U.S. government's official web portal to all federal, state and local government web resources and services.